International Falls, MN

6:26 AM CST on January 16, 2018 (GMT -0600)
Falls International

Weather History for KINL - January, 2013

Change the Weather History Date:

Wednesday, January 16, 2013

  Actual Average Record
Temperature  
Mean Temperature 6 °F 4 °F  
Max Temperature 24 °F 15 °F 44 °F (1897)
Min Temperature -13 °F -7 °F -44 °F (1979)
Degree Days  
Heating Degree Days 59 61  
Month to date heating degree days 831 972  
Since 1 July heating degree days 4962 5147  
Cooling Degree Days 0 0  
Month to date cooling degree days 0 0  
Year to date cooling degree days 0 0  
Moisture  
Dew Point 2 °F    
Average Humidity 70    
Maximum Humidity 91    
Minimum Humidity 49    
Precipitation  
Precipitation 0.04 in 0.02 in 0.60 in (1921)
Month to date precipitation 1.04 0.36  
Year to date precipitation 1.04 0.36  
Snow  
Snow 0.30 in 0.50 in 2.70 in (1996)
Month to date snowfall 6.3 8.4  
Since 1 July snowfall 31.6 39.4  
Snow Depth 11.00 in    
Sea Level Pressure  
Sea Level Pressure 29.81 in    
Wind  
Wind Speed 13 mph (WNW)    
Max Wind Speed 22 mph    
Max Gust Speed 26 mph    
Visibility 8 miles    
Events Rain , Snow    
T = Trace of Precipitation, MM = Missing Value Source: NWS Daily Summary

Daily Weather History Graph

Daily Weather History Graph

Search for Another Location

Airport or City:

Trip Planner

Search our weather history database for the weather conditions in past years. The results will help you decide how hot, cold, wet, or windy it might be!

Date:

Astronomy

Jan. 16, 2013 Rise Set
Actual Time 7:59 AM CST 4:47 PM CST
Civil Twilight 7:24 AM CST 5:23 PM CST
Nautical Twilight 6:45 AM CST 6:02 PM CST
Astronomical Twilight 6:07 AM CST 6:39 PM CST
Moon 10:05 AM CST 11:13 PM CST
Length of Visible Light 9h 58m
Length of Day
8h 48m
Waxing Crescent, 28% of the Moon is Illuminated
Jan 16
Waxing Crescent
Jan 18
First Quarter
Jan 26
Full
Feb 3
Last Quarter
Feb 10
New

Hourly Weather History & Observations

Time (CST) Temp. Windchill Dew Point Humidity Pressure Visibility Wind Dir Wind Speed Gust Speed Precip Events Conditions
12:11 AM 19.4 °F 6.6 °F 15.8 °F 86% 29.42 in 3.0 mi SSW 12.7 mph 20.7 mph 0.01 in Snow Light Snow
12:23 AM 19.4 °F 6.0 °F 15.8 °F 86% 29.42 in 2.0 mi SSW 13.8 mph 20.7 mph 0.02 in Snow Light Snow
12:30 AM 19.4 °F 7.9 °F 15.8 °F 86% 29.42 in 1.5 mi SSW 10.4 mph 20.7 mph 0.02 in Snow Light Snow
12:40 AM 19.4 °F 6.0 °F 15.8 °F 86% 29.42 in 3.0 mi SW 13.8 mph 19.6 mph 0.02 in Snow Light Snow
12:52 AM 19.4 °F 6.0 °F 15.8 °F 86% 29.42 in 4.0 mi SW 13.8 mph 24.2 mph 0.03 in Rain Light Freezing Rain
12:55 AM 19.9 °F 5.7 °F 16.0 °F 85% 29.49 in 4.0 mi SW 16.1 mph 24.2 mph 0.03 in Rain Light Freezing Rain
1:40 AM 19.4 °F 7.2 °F 17.6 °F 93% 29.41 in 4.0 mi SW 11.5 mph - 0.00 in Rain Light Freezing Rain
1:55 AM 19.9 °F 8.6 °F 18.0 °F 92% 29.47 in 3.0 mi SSW 10.4 mph - 0.00 in Rain Light Freezing Rain
2:55 AM 21.9 °F 11.0 °F 19.9 °F 92% 29.49 in 6.0 mi WSW 10.4 mph - 0.01 in   Overcast
3:55 AM 24.1 °F 12.0 °F 19.9 °F 84% 29.50 in 10.0 mi WNW 13.8 mph 21.9 mph N/A   Overcast
4:43 AM 23.0 °F 8.7 °F 17.6 °F 80% 29.47 in 10.0 mi WNW 18.4 mph 26.5 mph N/A   Overcast
4:55 AM 21.9 °F 6.9 °F 18.0 °F 85% 29.54 in 10.0 mi NW 19.6 mph 25.3 mph N/A   Overcast
5:55 AM 19.9 °F 5.2 °F 16.0 °F 85% 29.58 in 6.0 mi NW 17.3 mph 23.0 mph 0.00 in Snow Light Snow
6:44 AM 17.6 °F 1.7 °F 12.2 °F 79% 29.56 in 7.0 mi NW 18.4 mph - 0.00 in Snow Light Snow
6:55 AM 17.1 °F 2.5 °F 12.0 °F 81% 29.64 in 9.0 mi NW 15.0 mph - 0.00 in   Overcast
7:55 AM 14.0 °F -2.0 °F 9.0 °F 80% 29.69 in 10.0 mi NW 16.1 mph 20.7 mph N/A   Mostly Cloudy
8:55 AM 12.0 °F -5.1 °F 5.0 °F 73% 29.74 in 10.0 mi NW 17.3 mph - N/A   Scattered Clouds
9:55 AM 10.9 °F -6.5 °F 1.9 °F 67% 29.79 in 10.0 mi NW 17.3 mph 25.3 mph N/A   Clear
10:55 AM 10.9 °F -4.1 °F 1.9 °F 67% 29.83 in 10.0 mi NNW 12.7 mph - N/A   Clear
11:20 AM 10.4 °F -7.2 °F 1.4 °F 67% 29.76 in 10.0 mi WNW 17.3 mph - N/A   Mostly Cloudy
11:30 AM 10.4 °F -6.0 °F -0.4 °F 62% 29.77 in 10.0 mi WNW 15.0 mph - N/A   Scattered Clouds
11:55 AM 10.0 °F -6.5 °F -0.0 °F 64% 29.86 in 10.0 mi NW 15.0 mph - N/A   Partly Cloudy
12:55 PM 9.0 °F -6.6 °F -2.9 °F 59% 29.90 in 10.0 mi NW 12.7 mph - N/A   Mostly Cloudy
1:55 PM 8.1 °F -9.6 °F -5.1 °F 55% 29.95 in 10.0 mi NW 16.1 mph 23.0 mph N/A   Overcast
2:55 PM 6.1 °F -11.6 °F -9.9 °F 48% 30.00 in 10.0 mi NW 15.0 mph - N/A   Clear
3:55 PM 1.9 °F -17.5 °F -13.0 °F 50% 30.06 in 10.0 mi NW 16.1 mph 25.3 mph N/A   Clear
4:55 PM -0.0 °F -17.1 °F -13.0 °F 54% 30.10 in 10.0 mi NW 11.5 mph - N/A   Clear
5:55 PM -2.9 °F -19.8 °F -13.0 °F 62% 30.16 in 10.0 mi NNW 10.4 mph - N/A   Clear
6:55 PM -6.0 °F -20.1 °F -14.1 °F 68% 30.20 in 10.0 mi NW 6.9 mph - N/A   Clear
7:55 PM -7.1 °F -23.9 °F -16.1 °F 65% 30.23 in 10.0 mi NW 9.2 mph - N/A   Clear
8:55 PM -8.0 °F -25.0 °F -17.0 °F 65% 30.26 in 10.0 mi NNW 9.2 mph - N/A   Partly Cloudy
9:55 PM -9.0 °F -18.2 °F -17.0 °F 68% 30.27 in 10.0 mi WNW 3.5 mph - N/A   Clear
10:55 PM -11.0 °F -26.2 °F -18.9 °F 68% 30.29 in 10.0 mi WNW 6.9 mph - N/A   Mostly Cloudy
11:55 PM -11.9 °F -27.3 °F -18.0 °F 74% 30.31 in 10.0 mi West 6.9 mph - N/A   Partly Cloudy